Location: Godiavel Galaoual
(15.2485°N, 12.6604°W)
Time: 08:48:30
(UTC+00:00)

Envisat - Pass Details

Date: 10 December 2021
Orbit: 764 x 766 km, 98.2° (Epoch: 21 January)

Event Time Altitude Azimuth Distance (km) Brightness Sun altitude
Rises 05:16:54 0° 18° (NNE) 3,222 6.2 -25.5°
Reaches altitude 10° 05:19:15 10° 23° (NNE) 2,295 5.5 -24.9°
Maximum altitude 05:24:12 57° 101° (E) 895 3.6 -23.8°
Drops below altitude 10° 05:29:10 10° 179° (S) 2,291 5.7 -22.7°
Sets 05:31:30 0° 184° (S) 3,216 6.4 -22.1°
